Regional Weather Roundup
Issued by NWS State College, PA

Home | Current Version | Previous Version | Graphics & Text | Print | Product List | Glossary Off
Versions: 1 2 3 4 5 6 7 8 9 10 11 12 13 14 15 16 17 18 19 20 21 22 23 24 25 26 27 28 29 30 31 32 33 34 35 36 37 38 39 40 41 42 43 44 45 46 47 48 49 50

000
ASUS41 KCTP 270310
RWRCTP

REGIONAL WEATHER ROUNDUP
NATIONAL WEATHER SERVICE STATE COLLEGE PA
1100 PM EDT THU MAY 26 2016

Note: "fair" indicates few or no clouds below 12,000 feet with no
significant weather and/or obstructions to visibility.

* = STATION THAT DOES NOT REPORT PRECIPITATION /E.G. RAIN...SNOW...ETC/
    THUNDER OR FOG.

PAZ002>004-007>009-013>016-020>023-029>032-270400-
WESTERN PENNSYLVANIA

CITY           SKY/WX    TMP DP  RH WIND       PRES   REMARKS
ERIE           CLEAR     74  62  66 S9        29.97R
MEADVILLE      CLEAR     69  62  78 CALM      30.02R
FRANKLIN*      CLEAR     68  59  73 S7        30.06R
NEW CASTLE     FAIR      71  64  78 S3        30.03R
BEAVER COUNTY  NOT AVBL
BUTLER*        PTCLDY    70  61  73 SW5       30.06S
PITTSBURGH INT PTCLDY    73  62  68 S6        30.04R
PITTSBURGH     CLEAR     71  61  70 S6        30.03F
INDIANA*       CLEAR     66  63  88 CALM      30.08F
LATROBE        CLEAR     66  64  94 CALM      30.05F
WASHINGTON CO* CLEAR     64  61  88 CALM      30.05S
$$

PAZ004>006-010>012-017>019-024>028-033>037-041-042-045-046-049>053-270400-
CENTRAL PENNSYLVANIA

CITY           SKY/WX    TMP DP  RH WIND       PRES   REMARKS
BRADFORD       CLEAR     68  59  73 CALM      30.07S
DUBOIS         CLEAR     69  59  70 S3        30.06S
CLEARFIELD     MOCLDY    67  60  78 N6        30.07R
JOHNSTOWN      PTCLDY    69  55  60 SW5       30.09S
ALTOONA        CLEAR     65  63  93 CALM      30.08R
STATE COLLEGE  MOCLDY    68  64  87 CALM      30.06F
WILLIAMSPORT   PTCLDY    70  61  73 NW3       30.01S
SELINSGROVE    PTCLDY    69  64  84 CALM      30.03R
FT INDIANTOWN  MOCLDY    69  65  86 E2        30.05R
CAPITAL CITY   CLEAR     78  63  59 S8        30.02R
HARRISBURG     PTCLDY    76  64  66 SE6       30.02R
YORK           PTCLDY    73  65  75 CALM      30.04R
$$

PAZ038>040-043-044-047-048-054-055-060>062-067>071-270400-
EASTERN PENNSYLVANIA

CITY           SKY/WX    TMP DP  RH WIND       PRES   REMARKS
SCRANTON       MOCLDY    78  57  48 S8        30.05R
MOUNT POCONO   MOCLDY    64  55  72 S7        30.11S
ALLENTOWN      CLOUDY    80  56  43 S9        30.05R
QUAKERTOWN*    PTCLDY    75  59  57 CALM      30.07S
READING        MOCLDY    77  56  48 S7        30.05R
LANCASTER      LGT RAIN  76  64  66 S9        30.05R
COATESVILLE    PTCLDY    72  59  64 CALM      30.08S
POTTSTOWN      PTCLDY    72  57  59 CALM      30.07R
BLUE BELL      PTCLDY    73  55  53 CALM      30.06R
DOYLESTOWN     CLEAR     72  55  55 CALM      30.06R
WILLOW GROVE   NOT AVBL
NORTH PHILA    PTCLDY    78  56  46 CALM      30.07R
PHILADELPHIA   PTCLDY    76  57  51 SW3       30.06R
$$




USA.gov is the U.S. government's official web portal to all federal, state and local government web resources and services.